Погода в Камских Полянах

Россия / Республика Татарстан     55°25′43″N   51°24′49″E
темп.,
°C
ветер,
м/с
пор.,
м/с
влажн.,
%
обл.,
%
осадки,
мм/ч
давл.,
гПа
погр.,
м
9 мая, вс
вс900:00+11юв2275100 0.0 101524
03:00+10вюв22754 0.0 101529
06:00+13юв396743 0.0 1015264
09:00+19ююв57472 0.0 1015732
12:00+22ю67364 0.0 10142362
15:00+23ю573722 0.0 10142435
18:00+19ююв2255100 0.0 101423
21:00+17юв235592 0.0 101548
10 мая, пн
пн1000:00+14юв226370 0.0 101618
03:00+15юв385785 0.0 1017155
06:00+16ююв2859100 0.0 1018212
09:00+20ююв3547100 0.0 1019581
12:00+23ю3440100 0.0 10201374
15:00+24вюв2234100 0.0 10202262
18:00+21в3352100 0.0 102138
21:00+16вюв356073 0.0 102268
11 мая, вт
вт1100:00+14с3681100 0.0 1024110
03:00+13св2378100 0.0 102549
06:00+15св2571100 0.0 1026159
09:00+20всв335360 0.0 1027529
12:00+23в224190 0.0 10271504
15:00+24в233785 0.0 10272189
18:00+22всв124840 0.0 102715
21:00+17всв3357100 0.0 102843
12 мая, ср
ср1200:00+15в347258 0.0 102965
03:00+13всв23800 0.0 102939
06:00+16в46770 0.0 1030206
09:00+21в45532 0.0 1030700
12:00+24вюв34425 0.0 10301899
15:00+25в333813 0.0 10292198
18:00+21всв486035 0.0 1029256
21:00+18в396421 0.0 1029196
13 мая, чт
чт1300:00+15в23670 0.0 102935
03:00+14в22660 0.0 102911
06:00+16в36590 0.0 1029179
09:00+21в44430 0.0 1028639
12:00+24вюв333621 0.0 10271270
15:00+25вюв233680 0.0 10261716
18:00+22всв224882 0.0 102634
21:00+18вюв2250100 0.0 102620